TIANMU-1 14

Last updated on Sun Dec 21 2025 00:02:26 GMT+0000 (Coordinated Universal Time)

1 58648U 23205D 25354.60153862 .00004354 00000+0 17938-3 0 9999 2 58648 97.3542 13.4354 0007026 238.2178 121.8376 15.24598812110273
UTC large
Height (km)
Speed (km/s)
/
Latitude / Longitude
Inclination (degrees)
Orbital Period (minutes)
Azimuth
Elevation
Range (km)
Doppler Factor

Next 0 passes for location: London (51.5072 / 0.1276)

Sorry there are no passes over London.